Regional Weather Roundup
Issued by NWS

Home | Current Version | Previous Version | Text Only | Print | Product List | Glossary On
Versions: 1 2 3 4 5 6 7 8 9 10 11 12 13 14 15 16 17 18 19 20 21 22 23 24 25 26 27 28 29 30 31 32 33 34 35 36 37 38 39 40 41 42 43 44 45 46 47 48 49 50
218
ASUS46 KSEW 181310
RWRWA

WASHINGTON REGIONAL WEATHER ROUNDUP
NATIONAL WEATHER SERVICE SEATTLE WA
500 AM PST WED JAN 18 2017

NOTE:"FAIR" INDICATES FEW OR NO CLOUDS BELOW 12,000 FEET WITH NO
SIGNIFICANT WEATHER AND/OR OBSTRUCTIONS TO VISIBILITY.

WAZ507-509-555>559-181400-
SEATTLE, TACOMA, EVERETT, AND VICINITY

CITY           SKY/WX    TMP DP  RH WIND       PRES   REMARKS
EVERETT        CLOUDY    45  44  97 SE12G23   29.39F FOG
BOEING FIELD   LGT RAIN  44  44 100 VRB5      29.40F
RENTON         LGT RAIN  45  43  93 VRB5      29.40F FOG
SEATAC AIRPORT LGT RAIN  45  44  97 E10       29.40F
JBLM-MCCHORD   LGT RAIN  48  48 100 E5        29.39F
PUYALLUP       DRIZZLE   48  48 100 S7        29.40F
BREMERTON      CLOUDY    46  45  93 CALM      29.41F
JBLM-FT LEWIS  LGT RAIN  49  49 100 E6        29.37F
TACOMA NARROWS LGT RAIN  48  48 100 CALM      29.39F
$$

WAZ001-503-506-510-514-515-181400-
NORTH INTERIOR

CITY           SKY/WX    TMP DP  RH WIND       PRES   REMARKS
BELLINGHAM     LGT RAIN  53  47  79 SE21G29   29.32F
FRIDAY HARBOR  CLOUDY    50  46  86 SE17G26   29.33F
EASTSOUND      CLOUDY    50  46  87 S14G22    29.30F
PORT ANGELES   LGT RAIN  44  44 100 CALM      29.30S
EDIZ HOOK      DRIZZLE   46  44  95 W6        29.29S
PORT TOWNSEND    N/A    N/A N/A N/A MISG        N/A
NAS WHIDBEY    CLOUDY    52  44  74 SE31G38   29.36F
ARLINGTON      NOT AVBL
BURLINGTON     CLOUDY    54  48  82 SE13G22   29.36F
$$

WAZ020-022-039-040-504-511-512-181400-
SOUTHWEST INTERIOR

CITY           SKY/WX    TMP DP  RH WIND       PRES   REMARKS
SHELTON        LGT RAIN  46  44  93 N5        29.35F
OLYMPIA        LGT RAIN  48  48 100 SW8       29.37F
CHEHALIS       CLOUDY    48  48 100 S12G18    29.41F
KELSO          CLOUDY    40  39  97 SE10      29.43F
VANCOUVER      RAIN      35  33  92 SE14      29.47F FOG     WCI  26
SCAPPOOSE, OR  RAIN      34  34 100 CALM      29.46F FOG
PORTLAND, OR   LGT RAIN  34  34 100 SE23      29.48F FOG     WCI  22
$$

WAZ021-516-517-181400-
WASHINGTON COAST

CITY           SKY/WX    TMP DP  RH WIND       PRES   REMARKS
FORKS          HVY RAIN  50  49  96 S12G22    29.24F FOG
HOQUIAM        CLOUDY    51  50  96 S31G40    29.33F FOG
ASTORIA, OR    CLOUDY    57  48  72 S32G47    29.33F
$$

WAZ019-023-024-040-567>569-181400-
CASCADE MOUNTAINS AND COLUMBIA GORGE

CITY           SKY/WX    TMP DP  RH WIND       PRES   REMARKS
STAMPEDE PASS  NOT AVBL
TROUTDALE, OR  LGT RAIN  35  32  88 E26G43    29.49F FOG     WCI  22
THE DALLES, OR CLOUDY    24  21  88 W5        29.72F FOG
$$

WAZ026-027-041>044-520-521-181400-
EAST SLOPES

CITY           SKY/WX    TMP DP  RH WIND       PRES   REMARKS
OMAK           LGT SNOW  24  20  84 CALM      29.70S FOG
WENATCHEE      LGT SNOW  20  19  96 NW6       29.73S FOG
ELLENSBURG     MIX PCPN  25  20  81 CALM      29.64F
YAKIMA         FRZ RAIN  26  22  84 CALM      29.69F FOG
$$

WAZ028-034-035-181400-
COLUMBIA BASIN

CITY           SKY/WX    TMP DP  RH WIND       PRES   REMARKS
EPHRATA        FRZ RAIN  28  21  75 NW8       29.68F
MOSES LAKE     FRZ RAIN  26  23  88 W7        29.71R FOG
PASCO          FRZ RAIN  24  21  88 W10       29.76R WCI  14
HERMISTON, OR  MIX PCPN  21  18  88 W6        29.70F FOG
$$

WAZ036>038-181400-
NORTHEAST WASHINGTON

CITY           SKY/WX    TMP DP  RH WIND       PRES   REMARKS
SPOKANE GEIGER CLOUDY    34  32  92 SE10      29.67F WCI  26
SPOKANE FELTS  CLOUDY    34  33  96 CALM      29.70F FOG
FAIRCHILD AFB  DRIZZLE   33  33 100 SE16      29.65F WCI  23
COEURDALENE,ID MIX PCPN  32  31  96 NE6       29.71F FOG
DEER PARK      FRZ RAIN  32  30  92 NE5       29.69F FOG
$$

WAZ029>033-181400-
SOUTHEAST WASHINGTON

CITY           SKY/WX    TMP DP  RH WIND       PRES   REMARKS
PULLMAN        LGT RAIN  34  28  79 E17G26    29.73F WCI  23
LEWISTON, ID   LGT RAIN  35  29  78 E7        29.78F
WALLA WALLA    MIX PCPN  25  23  92 W5        29.66F FOG
PENDLETON, OR  FRZ RAIN  25  24  96 NW9       29.64S FOG
$$




USA.gov is the U.S. government's official web portal to all federal, state and local government web resources and services.